National Weather Service United States Department of Commerce
News Headlines

Observations from across/near northern Michigan

Marine Observations

Michigan Hourly Observations

 

Yesterday's high, low and precipitation reports from across northern Michigan

Northern Michigan Temperatures and Precipitation

 

Observation Text Products


000
SXUS83 KAPX 171726
OMRAPX

Marine Observations
National Weather Service Gaylord MI
126 PM EDT Tue Jul 17 2018

WIND DATA (KTS) WAVES
SITE DATE/TIME DIR SPEED GUST (FT) SITE NAME
--------------------------------------------------

Lake Superior/St Marys River

45172 171710Z 340 12 2.6 Grand Marais Buoy
GRMM4 171640Z 330 18 20 Grand Marais
WFPM4 171640Z 330 7 14 Whitefish Point
PTIM4 171700Z 300 12 17 Point Iroquois
CYAM 171700Z 300 17 SOO (Canada)
KANJ 171655Z 300 11 18 Sault Ste Marie
SWPM4 171700Z 310 9 14 S.W. Pier
LTRM4 171700Z 310 13 16 Little Rapids
RCKM4 171700Z 290 13 19 Rock Cut
WNEM4 171700Z 290 14 17 West Nebish Island

Lake Huron

DTLM4 171700Z 340 11 17 DeTour Village
KDRM 171715Z 280 7 Drummond Island
KMCD 171715Z 330 6 14 Mackinac Island
MACM4 171700Z 300 13 19 Mackinac City
KSLH 171715Z 320 12 16 Cheboygan Airport
CYGM4 171655Z 300 5 13 Cheboygan Marina
SRLM4 171700Z 280 16 Spectacle Reef Light
KPZQ 171715Z 340 11 Rogers City
PRIM4 171655Z 310 10 18 Presque Isle Light
KAPN 171654Z 340 15 20 Alpena Guard Base
APNM4 171710Z 360 11 17 Alpena Harbor Light
TBIM4 171650Z 340 11 15 Thunder Bay Island
45162 171700Z 350 14 17 1.3 Thunder Bay Buoy
SPTM4 171655Z 360 7 18 Sturgeon Point Light
KOSC 171715Z 320 10 19 Oscoda
TAWM4 171640Z 340 9 14 Tawas Point
GSLM4 171705Z 280 11 20 Gravelly Shoals
45003 171650Z 310 16 17 3.3 Northern Lake Huron Buoy
45008 171650Z 320 12 14 2.3 Central Lake Huron Buoy
45163 171700Z 320 10 14 1.0 Saginaw Bay Buoy
KP58 171651Z 330 5 Port Hope

Lake Michigan

KISQ 171715Z 340 9 18 Manistique
PNLM4 171700Z 330 13 17 Port Inland
NABM4 171640Z 320 12 18 Naubinway
WSLM4 171700Z 290 13 White Shoal Light
KSJX 171715Z 310 12 17 St James
KPLN 171654Z 290 13 18 Pellston
KMGN 171715Z 280 13 17 Harbor Springs
KCVX 171715Z 340 9 Charlevoix
GTLM4 171701Z 320 17 19 Grand Traverse Light
KTVC 171653Z 350 10 20 Traverse City
KFKS 171715Z 340 9 18 Frankfort
BSBM4 171640Z 360 15 18 Big Sable Point
LDTM4 171700Z 360 9 14 Ludington
KLDM 171715Z 330 12 19 Ludington Airport


000
ASUS43 KDTX 171710
RWRMI
MICHIGAN HOURLY REGIONAL WEATHER ROUNDUP
NATIONAL WEATHER SERVICE DETROIT/PONTIAC MI
100 PM EDT TUE JUL 17 2018

NOTE: "FAIR" INDICATES FEW OR NO CLOUDS BELOW 12,000 FEET WITH NO
SIGNIFICANT WEATHER AND/OR OBSTRUCTION TO VISIBILITY.

MIZ047>049-052>055-059>063-066>070-074>076-081>083-171800-
SOUTHEAST LOWER MICHIGAN

CITY SKY/WX TMP DP RH WIND PRES REMARKS
ADRIAN FAIR 82 53 36 N7 30.02R
ALMA FAIR 75 54 48 N12G18 30.05S
ANN ARBOR PTSUNNY 78 57 48 NW13G20 30.00S
BAD AXE FAIR 74 53 47 N12G22 30.00S
CARO FAIR 78 53 41 NW13 30.01S
DETROIT CITY FAIR 81 52 36 W10 29.98S
DETROIT FAIR 83 57 41 NW8 29.99F
FLINT FAIR 75 51 43 NW17G24 30.02S
GROSSE ILE PTSUNNY 81 58 45 N8 29.98S
HILLSDALE FAIR 79 50 36 NW10G20 30.04S
HOWELL FAIR 77 52 41 NW14G20 30.03S

CITY SKY/WX TMP DP RH WIND PRES REMARKS
JACKSON FAIR 81 53 37 VRB7 30.03S
LAMBERTVILLE FAIR 84 55 37 NW9 29.99S
LANSING FAIR 79 53 40 N15G21 30.05R
LAPEER PTSUNNY 79 47 33 N10G16 30.02R
MASON FAIR 78 53 41 N10G17 30.04R
MONROE FAIR 80 57 46 N7 29.99S
MT. CLEMENS MOSUNNY 79 55 44 NW15 29.98S
PONTIAC FAIR 78 54 43 NW15G23 30.00R
PORT HOPE N/A 74 59 59 NW6 29.99S
PORT HURON PTSUNNY 77 54 44 NW9 29.99S
TRI CITIES FAIR 78 55 44 NW10G22 30.03R
MIDLAND PTSUNNY 75 54 47 NW14 30.02S
TROY PTSUNNY 80 51 35 NW12G18 30.01S
SAGINAW HB FAIR 77 52 41 N12G24 30.02R
$$
MIZ043>046-050>051-056>058-064>065-071>073-077>080-171800-
SOUTHWEST LOWER MICHIGAN

CITY SKY/WX TMP DP RH WIND PRES REMARKS
BATTLE CREEK FAIR 81 55 40 N10 30.05S
BENTON HARBOR FAIR 78 54 43 VRB7 30.07R
BIG RAPIDS FAIR 75 51 42 NW16 30.05S
COLDWATER FAIR 80 48 32 N9 30.04S
FREMONT FAIR 77 53 42 N13 30.05S
HOLLAND FAIR 79 53 40 NW9G17 30.07R
GRAND RAPIDS PTSUNNY 78 52 40 NW9 30.05S
IONIA PTSUNNY 76 53 44 NW13 30.04S
KALAMAZOO FAIR 79 53 40 N8G17 30.05S
LUDINGTON FAIR 71 57 61 N12G18 30.09R
MARSHALL FAIR 78 51 37 NW6 30.04S
MOUNT PLEASANT FAIR 76 51 40 W9G18 30.03S
MUSKEGON FAIR 80 54 40 NW10 30.06S
SOUTH HAVEN FAIR 76 55 48 NW12 30.07S
$$
MIZ016>042-171800-
NORTHERN LOWER MICHIGAN

CITY SKY/WX TMP DP RH WIND PRES REMARKS
ALPENA FAIR 76 54 46 N17G23 30.01R
BEAVER ISLAND FAIR 70 51 51 NW13 30.08S
BELLAIRE PTSUNNY 69 55 61 NW8 30.07S
CADILLAC PTSUNNY 69 52 54 NW12G20 30.07S
CHARLEVOIX FAIR 68 55 62 NW10 30.10S
FRANKFORT FAIR 67 57 68 N9 30.10S
GAYLORD FAIR 67 52 58 NW9G20 30.06R
GRAYLING FAIR 72 52 49 NW13 30.04S
HARBOR SPRINGS PTSUNNY 70 51 52 NW9G16 30.06R
HOUGHTON LAKE PTSUNNY 73 51 46 NW12G22 30.05S
MANISTEE FAIR 70 58 65 N12G21 30.09R
OSCODA FAIR 77 51 39 N10G17 29.98F
PELLSTON FAIR 71 54 54 W15G21 30.05R
ROGERS CITY FAIR 70 55 58 N15 30.03S
TRAVERSE CITY FAIR 71 55 56 N12G23 30.06S
$$
MIZ007>008-015-171800-
EASTERN UPPER MICHIGAN

CITY SKY/WX TMP DP RH WIND PRES REMARKS
KINROSS PTSUNNY 67 54 63 NW17 30.05R
MACKINAC ISLAN PTSUNNY 70 53 53 NW10 30.04R
NEWBERRY CLOUDY 61 53 74 N12G17 30.09R
S. S. MARIE FAIR 70 56 61 NW13G21 30.03R
MUNISING N/A 62 56 80 NW14 30.13R
$$
MIZ004>006-011>014-085-171800-
CENTRAL UPPER MICHIGAN

CITY SKY/WX TMP DP RH WIND PRES REMARKS
MANISTIQUE CLOUDY 67 51 56 N13G21 30.09R
ESCANABA CLOUDY 65 50 58 NW12G20 30.13R
MENOMINEE CLOUDY 68 52 56 N12G18 30.13R
SAWYER-GWINN CLOUDY 59 48 67 N13 30.16R
$$
MIZ001>003-009>011-084-171800-
WESTERN UPPER MICHIGAN

CITY SKY/WX TMP DP RH WIND PRES REMARKS
IRON MOUNTAIN PTSUNNY 68 50 52 NW13 30.14R
HOUGHTON PTSUNNY 63 49 60 N8 30.16R
COPPER HARBOR N/A 56 47 71 NE8 30.16R
IRONWOOD FAIR 64 49 57 N8 30.19R
$$

ABBREVIATIONS USED IN REMARKS
TC - TEMPERATURE IN CELSIUS
WCI - WIND CHILL INDEX
HX - HEAT INDEX
VSB - VISIBILITY




000
ASUS63 KAPX 171403
RTPAPX


Eastern Upper/Northern Lower Michigan Temperature and Precip Summary
National Weather Service Gaylord MI
1003 AM EDT Tue Jul 17 2018

Yesterday`s High Temperature...12 hour Low ending 8 am EDT
24 hour Precipitation/Snowfall ending 8 am EDT
Snow Depth observed at 8 am EDT

.BR APX 0717 ES DH00/TAIRZX/DH07/TAIRZP/PPDRZZ/SFDRZZ/SDIRZZ
:..................................................................
: MAX MIN 24 HR 24 HR SNOW
:ID LOCATION TEMP TEMP PRECIP SNOW DEPTH
:..................................................................
ANJ : Sault Ste Marie : 80 / 55 / 0.00 / 0.0 / 0.0
APN : Alpena : 90 / 56 / 0.39 / 0.0 / 0.0
HTL : Houghton Lake : 87 / 55 / 0.00 / 0.0 / 0.0
PLN : Pellston : 82 / 52 / 0.00 / /
TVC : Traverse City : 85 / 58 / 0.00 / /
GLR : Gaylord : 80 / 53 / 0.00 / /
.END

Cooperative Observations
Temperature/Precipitation/Snowfall values are for 24 hour period
ending at observation time. Snow Depth at obs time.

...................................................................
OBS MAX MIN SNOW SNOW
ID LOCATION TIME TEMP TEMP PCPN FALL DEPTH
...................................................................
BEUM4: Beulah 7SSW :DH0800/ 81 / 56 / 0.00 / 0.0 / 0.0
CDLM4: Cadillac 9&10 News :DH0730/ 84 / 57 / 0.00 / 0.0 / 0.0
CHRM4: Charlevoix :DH0800/ 80 / 64 / 0.00 / 0.0 / 0.0
DTVM4: Detour Village :DH0800/ 79 / 55 / 0.00 / 0.0 / 0.0
EJNM4: East Jordan 2NW :DH0800/ 80 / 53 / 0.00 / 0.0 / 0.0
ETWM4: East Tawas :DH0830/ 86 / 55 / 0.14 / 0.0 / 0.0
ENGM4: Engadine MDOT :DH0700/ 87 / 55 / 1.24 / 0.0 / 0.0
FLAM4: Fife Lake 2WSW :DH0700/ 82 / 52 / T / 0.0 / 0.0
GAYM4: Gaylord :DH0800/ 80 / 53 / 0.00 / 0.0 / 0.0
APXM4: Gaylord 9SSW (NWS) :DH0800/ M / M / 0.00 / 0.0 / 0.0
GLAM4: Gladwin :DH0700/ 86 / 56 / 0.31 / 0.0 / 0.0
GLNM4: Glennie 2SE :DH0730/ 86 / 56 / 1.39 / 0.0 / 0.0
HALM4: Hale Loud Dam :DH0900/ 88 / 56 / 0.71 / 0.0 / 0.0
KSEM4: Kalkaska 11SE :DH0830/ 83 / 50 / 0.00 / 0.0 / 0.0
LKCM4: Lake City 2SE :DH0800/ 88 / 57 / 0.05 / 0.0 / 0.0
LEWM4: Lewiston 3W :DH0800/ 83 / 55 / 0.00 / 0.0 / 0.0
LUPM4: Lupton 1S :DH0800/ 84 / 53 / 0.00 / 0.0 / 0.0
MYOM4: Mio :DH0830/ 88 / 53 / 0.00 / 0.0 / 0.0
MRAM4: Moran :DH0800/ 82 / 50 / 0.00 / 0.0 / 0.0
OMSM4: Old Mission 3SSW :DH0700/ 82 / 60 / 0.00 / 0.0 / 0.0
PETM4: Petoskey :DH0800/ 75 / 63 / 0.00 / 0.0 / 0.0
PTYM4: Petoskey NCMC :DH0800/ 78 / 56 / 0.00 / 0.0 / 0.0
SSMM4: Sault Ste Marie :DH0800/ 80 / 54 / 0.00 / 0.0 / 0.0
STIM4: St Ignace :DH0700/ 84 / 56 / 0.00 / 0.0 / 0.0
STAM4: Standish 4NE :DH0800/ 88 / 58 / 0.00 / 0.0 / 0.0
NWFM4: Traverse City 8NNW :DH0800/ 80 / 62 / 0.00 / 0.0 / 0.0
TCMM4: Traverse City Munson :DH0630/ 82 / 59 / 0.00 / 0.0 / 0.0
VANM4: Vanderbilt 11ENE :DH0800/ 83 / 47 / 0.00 / 0.0 / 0.0
WBRM4: West Branch 3SE :DH0800/ 86 / 55 / 0.27 / 0.0 / 0.0

These data are preliminary and have not undergone final quality
control by the National Centers for Environmental Information.
Therefore...these data are subject to revision. Final
and certified climate data can be accessed at www.ncdc.noaa.gov.

&&

The following are supplemental temperature and precipitation data.
This includes data which are received from non-National Weather
Service maintained observing systems...as well as reports from
public weather spotters. Data is only partially quality controlled
and is not suitable for official climatological records.

.BR APX 0717 ES DH00/TAIRZX/DH07/TAIRZP
:
:Automated Temperature Data--Yesterday High/12 hr Low ending 8 am EDT
:..................................................................
: MAX MIN
:ID LOCATION TEMP TEMP
:..................................................................
:
ERY : Newberry : 81 / 52
CIU : Kinross : 77 / 51
MCD : Mackinac Island : 78 / 57
DRM : Drummond Island : 80 / 58
SJX : Beaver Island : 80 / 61
SLH : Cheboygan : 82 / 56
PZQ : Rogers City : 80 / 58
CVX : Charlevoix : 80 / 63
MGN : Harbor Springs : 79 / 56
ACB : Bellaire : 80 / 51
FKS : Frankfort : 79 / 55
GOV : Grayling AAF : 84 / 50
MBL : Manistee : 81 / 55
CAD : Cadillac : 86 / 52
Y31 : West Branch : 85 / 53
OSC : Oscoda : 88 / 57
LDM : Ludington : 82 / 55
RQB : Big Rapids : 89 / 55
MOP : Mount Pleasant : 89 / 58
IKW : Midland : 88 / 55
.END

U.S. Forest Service Remote Automated Weather Stations (RAWS)
Data is only partially quality controlled
Yesterday`s High/12 hour Low Temperature ending 8 am EDT
Maximum Relative Humidity over past 12 hours
12/24 hour Precipitation ending 8 am EDT
...................................................................
MAX MIN MAX 12 HR 24 HR
ID LOCATION TEMP TEMP RH PRECIP PRECIP
...................................................................
AGRM4: Alger RAWS : M / M / M / M / M
ATAM4: Atlanta RAWS : 86 / 49 / 88 / 0.00 / 0.00
BCYM4: Barton City RAWS : 85 / 54 / 100 / 0.00 / 0.76
GYGM4: Grayling RAWS : 84 / 51 / 98 / 0.00 / 0.00
INDM4: Indian River RAWS : 87 / 47 / 94 / 0.00 / 0.00
MMOM4: Mio RAWS : 88 / 54 / 99 / 0.00 / 0.00
MTNM4: Manton RAWS : M / M / M / M / M
NMIM4: N Manitou Island : 79 / 61 / 74 / 0.00 / 0.00
RACM4: Raco RAWS : 80 / 51 / 93 / 0.00 / 0.00
REXM4: Rexton RAWS : 85 / 48 / 100 / 0.00 / 0.00
RSCM4: Roscommon RAWS : 89 / 46 / M / 0.00 / 0.00
RYDM4: Rudyard RAWS : 81 / 49 / 92 / 0.00 / 0.00
SBDM4: The Bear RAWS : 80 / 55 / 98 / 0.00 / 0.00
SCKM4: Silver Creek RAWS : 91 / 56 / 98 / 0.00 / 0.03
WLLM4: Wellston RAWS : 87 / 54 / 98 / 0.00 / 0.00


CoCoRaHS Precipitation Reports
Values are for the previous 24 hours ending around 8 am EDT.
All reports have been recorded in inches.

SNOW SNOW WATER
STATION LOCATION PCPN FALL DEPTH EQUIV
MIAP02 : OSSINEKE 1.0 NNE * : 2.24 / MM / MM / MM
MIAP01 : ALPENA 1.6 SSW * : 1.18 / MM / MM / MM
MIAC03 : GREENBUSH 2.5 S * : 0.92 / MM / MM / MM
MIOG06 : WEST BRANCH 2.1 SSW * : 0.23 / MM / MM / MM
MIIC03 : EAST TAWAS 0.8 WSW * : 0.18 / 0.0 / 0.0 / 0.00
MIRS03 : HOUGHTON LAKE 0.7 SSE * : 0.10 / MM / MM / MM
MIGT21 : KINGSLEY 2.7 ENE * : 0.04 / MM / MM / MM
MIPI01 : ROGERS CITY 0.2 WSW * : T / 0.0 / MM / MM
MICX07 : EAST JORDAN 2.1 NNW * : 0.00 / 0.0 / 0.0 / 0.00
MICF09 : GRAYLING 15.8 NE * : 0.00 / 0.0 / 0.0 / MM
MIMN06 : WELLSTON 3.9 WNW * : 0.00 / 0.0 / 0.0 / 0.00
MIOT04 : GAYLORD 1.7 WNW * : 0.00 / 0.0 / 0.0 / MM
MIBZ01 : BENZONIA 5.3 S * : 0.00 / MM / MM / MM
MICX04 : CHARLEVOIX 4.3 SSE * : 0.00 / 0.0 / MM / MM
MIEM07 : PETOSKEY 3.9 SW * : 0.00 / 0.0 / MM / MM
MIEM08 : PETOSKEY 1.7 SSW * : 0.00 / 0.0 / MM / MM
MILL01 : NORTHPORT 5.0 SSW * : 0.00 / MM / MM / MM
MIMC03 : CEDARVILLE 3.2 ESE * : 0.00 / 0.0 / MM / MM
MIMC04 : ST. IGNACE 0.5SE * : 0.00 / 0.0 / MM / MM
MIOD03 : LUZERNE 2.4 NE * : 0.00 / 0.0 / MM / MM

$$